Tracking 19817 objects as of 19-Aug-2019
HD Live streaming from Space Station
objects crossing your sky now

THORAD DELTA 1 DEB

Track THORAD DELTA 1 DEB now!
10-day predictions


NORAD ID: 8151
Int'l Code: 1974-089R
Perigee: 1,084.6 km
Apogee: 1,606.3 km
Inclination: 101.8 °
Period: 112.4 minutes
Semi major axis: 7716 km
RCS: 0.0604 m2 (small)
Launch date: November 15, 1974
Source: United States (US)
Launch site: AIR FORCE WESTERN TEST RANGE (AFWTR)

Note: This is SATELLITE DEBRIS
aabbcc
Your satellite tracking list
Your tracking list is empty




NASA's NSSDC Master Catalog

Two Line Element Set (TLE):
1  8151U 74089R   19230.85295396 +.00000138 +00000-0 +63508-3 0  9992
2  8151 101.8108 183.2383 0338044 059.3650 356.2112 12.80796263089409
Source of the keplerian elements: AFSPC